Home > Weather > Stonewall > Past weeks

Flag for Canada Weather for the Past 2 Weeks in Stonewall, Manitoba, Canada

Now
32 °F

Clear.


Feels Like: 26 °F
Forecast: 37 / 70 °F
Wind: 6 mph from Northwest

Location: Winnipeg Int. Airportman.

Current Time: May 4, 2016 at 5:01:33 AM

Latest Report: May 4, 2016 at 4:00 AM


Visibility: 15 mi

Pressure: 30.09 "Hg

Humidity: 93%

Dew Point: 30 °F

Location of StonewallLocation

Historic Weather in Stonewall — Graph

°F

Stonewall Temperature Yesterday

Maximum temperature yesterday: 61 °F (at 1:00 PM)
Minimum temperature yesterday: 43 °F (at 11:00 PM)
Average temperature yesterday: 54 °F

High & Low Weather Summary for the Past Weeks

 TemperatureHumidityPressure
High70 °F (May 2, 3:00 PM)94% (Apr 20, 2:00 AM)30.41 "Hg (Apr 20, 2:00 AM)
Low28 °F (Apr 22, 3:00 AM)18% (Apr 28, 5:00 PM)29.81 "Hg (May 3, 4:00 AM)
Average47 °F51%30.13 "Hg
* Reported Apr 19 3:00 AM — May 4 3:00 AM, Stonewall, Weather by CustomWeather, © 2016

Note: Actual official high and low records may vary slightly from our data, if they occured in-between our weather recording intervals... More about our weather records

Advertising

Stonewall Weather History for the Previous 24 Hours

Scroll right to see more
 ConditionsComfort  
Time TempWeatherWind HumidityBarometerVisibility
3:00 AM
Wed, May 4
37 °FClear.3 mph75%30.09 "Hg15 mi
2:00 AM34 °FClear.5 mph81%30.09 "Hg15 mi
1:00 AM36 °FClear.6 mph81%30.08 "Hg15 mi
12:00 AM39 °FClear.3 mph75%30.07 "Hg15 mi
11:00 PM
Tue, May 3
43 °FClear.3 mph71%30.06 "Hg15 mi
10:00 PM46 °FClear.7 mph62%30.06 "Hg15 mi
9:00 PM50 °FSunny.9 mph54%30.05 "Hg15 mi
8:00 PM54 °FSunny.14 mph47%30.03 "Hg15 mi
7:00 PM57 °FSunny.20 mph41%30.02 "Hg15 mi
6:00 PM59 °FSunny.17 mph39%30.01 "Hg15 mi
5:00 PM59 °FSunny.20 mph39%30.00 "Hg15 mi
4:00 PM61 °FPassing clouds.22 mph39%29.99 "Hg15 mi
3:00 PM61 °FPassing clouds.20 mph39%29.98 "Hg15 mi
2:00 PM61 °FPassing clouds.25 mph34%29.96 "Hg15 mi
1:00 PM61 °FSunny.26 mph27%29.96 "Hg15 mi
12:00 PM59 °FSunny.24 mph29%29.95 "Hg15 mi
11:00 AM59 °FSunny.24 mph36%29.94 "Hg15 mi
10:00 AM57 °FPassing clouds.22 mph39%29.93 "Hg15 mi
9:00 AM55 °FScattered clouds.15 mph41%29.93 "Hg15 mi
8:00 AM52 °FScattered clouds.18 mph47%29.90 "Hg15 mi
7:00 AM48 °FScattered clouds.15 mph58%29.89 "Hg15 mi
6:00 AM48 °FPassing clouds.13 mph66%29.85 "Hg15 mi
5:00 AM48 °FPassing clouds.10 mph66%29.83 "Hg15 mi
Weather by CustomWeather, © 2016

See weather overviewHow to use our weather pages